IRNSS-1G                
1 41469U 16027A   19261.51178088 -.00000339  00000-0  00000+0 0  9992
2 41469   2.6075 237.9289 0004746 226.4538 206.5487  1.00273545 12481
PSLV R/B                
1 41470U 16027B   19261.48285537  .00002203  00000-0  52351-3 0  9999
2 41470  17.9466  22.1356 6038458 183.9440 167.4139  3.97744989 49108